Regional Weather Roundup
Issued by NWS Bismarck, ND

Home | Current Version | Previous Version | Text Only | Print | Product List | Glossary On
Versions: 1 2 3 4 5 6 7 8 9 10 11 12 13 14 15 16 17 18 19 20 21 22 23 24 25 26 27 28 29 30 31 32 33 34 35 36 37 38 39 40 41 42 43 44 45 46 47 48 49 50
000
ASUS43 KBIS 200810
RWRBIS

NWR BROADCAST TEXT
NATIONAL WEATHER SERVICE BISMARCK ND
300 AM CDT WED AUG 20 2014

NOTE: "FAIR" INDICATES FEW OR NO CLOUDS BELOW 12,000 FEET WITH NO
SIGNIFICANT WEATHER AND/OR OBSTRUCTIONS TO VISIBILITY.


CITY           SKY/WX    TMP DP  RH WIND       PRES   REMARKS
WILLISTON      PTCLDY    70  60  70 CALM      29.63F
MINOT          PTCLDY    66  60  81 SE7       29.68F
MINOT AFB      PTCLDY    64  63  99 SE7       29.67F
BISMARCK       CLEAR     68  61  78 E7        29.71F
DICKINSON      PTCLDY    63  57  81 S8        29.67F
GARRISON         N/A     68  62  81 SE8       29.69F
HETTINGER ARPT CLEAR     66  59  78 SE6       29.71F
JAMESTOWN      MOCLDY    66  63  90 SE7       29.75F
BEACH            N/A     63  61  94 SE9       29.67S
CARRINGTON     FAIR      63  63 100 SE8       29.76F
CROSBY         FAIR      70  63  78 S15G21    29.61F
HARVEY         FAIR      64  64 100 SE6       29.72F
HAZEN          FAIR      64  59  82 E5        29.68F
LINTON         FAIR      66  64  94 SE12      29.72S
MANDAN         FAIR      68  61  77 SE9       29.72S
STANLEY        FAIR      66  66 100 SE6       29.68F
TIOGA          FAIR      66  66 100 SE7       29.69F
WATFORD CITY   FAIR      66  61  82 SE6       29.63S
$$

CITY           SKY/WX    TMP DP  RH WIND       PRES   REMARKS
GRAND FORKS    CLEAR     63  61  93 S3        29.76S
GRAND FORKS AF CLEAR     64  64  99 SE5       29.77S
DEVILS LAKE    CLEAR     70  63  78 SE7       29.73F
FARGO          CLEAR     67  62  84 SE6       29.76F
CANDO          FAIR      64  64 100 SE6       29.74F
CAVALIER       FAIR      64  63  94 S5        29.75S
GRAFTON        FAIR      61  61 100 S5        29.76S
GWINNER        SUNNY     64  64 100 CALM      29.78S
LANGDON        FAIR      63  61  94 SE7       29.77S
ROLLA          FOG       57  57 100 S3        29.76S VSB 3/4
WALHALLA         N/A     68  68 100 S7          N/A
$$

CITY           SKY/WX    TMP DP  RH WIND       PRES   REMARKS
ABERDEEN       CLEAR     63  61  93 SE6       29.75S
MOBRIDGE       PTCLDY    67  63  87 SE9       29.70S
BUFFALO          N/A     71  60  68 SE8       29.63F
RAPID CITY     CLOUDY    70  56  61 SE10      29.74F
GLASGOW        PTCLDY    68  50  52 SE6       29.58F
SIDNEY         MOCLDY    64  57  77 CALM      29.63S
WOLF POINT     MOCLDY    63  45  51 NE5       29.58F
GLENDIVE       MOCLDY    72  57  60 S8        29.65F
MILES CITY     PTCLDY    71  49  45 S3        29.63S
BAKER          CLEAR     68  58  70 SE15      29.68F
$$

CITY           SKY/WX    TMP DP  RH WIND       PRES   REMARKS
BILLINGS       MOCLDY    71  43  36 SW13      29.75S
GREAT FALLS    CLOUDY    62  52  69 E6        29.78R
REGINA         MOCLDY    64  61  88 E8        29.62R
ESTEVAN        PTCLDY    66  61  82 E8        29.63F
$$




USA.gov is the U.S. government's official web portal to all federal, state and local government web resources and services.